Location: Unspecified
(56.5167°N, 0.0000°E)
Time: 11:32:22
(UTC+02:00)

Resurs 1-4 Rocket - Pass Details

Date: 11 August 2020
Orbit: 799 x 815 km, 98.6° (Epoch: 23 September)

Event Time Altitude Azimuth Distance (km) Brightness Sun altitude
Rises 05:09:21 0° 13° (NNE) 3,339 6.4 -8.7°
Reaches altitude 10° 05:11:52 10° 5° (N) 2,401 5.4 -8.5°
Maximum altitude 05:16:36 34° 302° (WNW) 1,304 3.1 -8.0°
Drops below altitude 10° 05:21:17 10° 239° (WSW) 2,380 3.9 -7.5°
Enters shadow 05:21:34 - 238° (WSW) 2,483 4.0 -7.5°
